Flag for U.S.A. Weather past 2 weeks in Baton Rouge, Louisiana, U.S.A.

Now
76 °F

Fog.


Feels Like: 76 °F
Forecast: 73 / 86 °F
Wind: 7 mph from East

Location: Baton Rouge Metropolitan - Ryan Field

Current Time: Aug 2, 2014 at 1:53:21 AM

Latest Report: Aug 2, 2014 at 12:53 AM


Visibility: 6 mi

Pressure: 29.96 "Hg

Humidity: 91%

Dew point: 73 °F

Location of Baton RougeLocation

Historic Weather in Baton Rouge — Graph

°F

Baton Rouge temperature yesterday

Maximum temperature yesterday: 83 °F (at 12:53 PM)
Minimum temperature yesterday: 72 °F (at 6:53 AM)
Average temperature yesterday: 76 °F

Past Weeks' High & Low Weather Summary

 TemperatureHumidityPressure
High94 °F (Jul 26, 3:53 PM)97% (Jul 18, 6:53 AM)30.11 "Hg (Jul 18, 6:53 AM)
Low67 °F (Jul 30, 5:53 AM)41% (Jul 29, 3:53 PM)29.90 "Hg (Jul 18, 6:53 PM)
Average80 °F77%30.01 "Hg
* Reported Jul 17 11:53 PM — Aug 1 11:53 PM, Baton Rouge, Weather by CustomWeather, © 2014

Note: Actual official high and low records may vary slightly from our data, if they occured in-between our weather recording intervals... More about our weather records

Advertising

Baton Rouge weather history for previous 24 hours

 ConditionsComfort  
Time TempWeatherWind HumidityBarometerVisibility
11:53 PM
Aug 1
77 °FFog.7 mph90%29.97 "Hg6 mi
10:53 PM76 °FFog.6 mph94%29.96 "Hg6 mi
9:53 PM77 °FMostly cloudy.3 mph90%29.96 "Hg7 mi
8:53 PM77 °FMostly cloudy.3 mph90%29.95 "Hg7 mi
7:53 PM78 °FPartly sunny.5 mph84%29.94 "Hg9 mi
6:53 PM79 °FBroken clouds.6 mph82%29.94 "Hg9 mi
5:53 PM80 °FBroken clouds.7 mph79%29.95 "Hg10 mi
4:53 PM79 °FBroken clouds.7 mph82%29.96 "Hg10 mi
3:53 PM77 °FMostly cloudy.12 mph90%29.98 "Hg10 mi
2:53 PM75 °FLight rain. Fog.No wind94%29.99 "Hg5 mi
1:53 PM74 °FLight rain. Mostly cloudy.10 mph91%29.99 "Hg7 mi
12:53 PM83 °FOvercast.8 mph63%29.98 "Hg10 mi
11:53 AM82 °FPassing clouds.7 mph77%30.00 "Hg9 mi
10:53 AM76 °FLight rain. Fog.7 mph88%30.01 "Hg6 mi
9:53 AM76 °FScattered clouds.5 mph88%30.01 "Hg7 mi
8:53 AM76 °FPartly sunny.5 mph80%30.00 "Hg9 mi
7:53 AM74 °FPassing clouds.7 mph82%29.98 "Hg8 mi
6:53 AM72 °FPassing clouds.6 mph84%29.98 "Hg8 mi
5:53 AM73 °FMostly cloudy.6 mph81%29.98 "Hg9 mi
4:53 AM73 °FPassing clouds.5 mph84%29.96 "Hg9 mi
3:53 AM73 °FPassing clouds.5 mph84%29.96 "Hg9 mi
2:53 AM73 °FOvercast.7 mph81%29.96 "Hg10 mi
1:53 AM74 °FMostly cloudy.6 mph82%29.98 "Hg10 mi
Weather by CustomWeather, © 2014

See weather overviewHow to use our weather pages